Regional Weather Roundup
Issued by NWS Midland/Odessa, TX

Skip options and go directly to product.
Home | Oldest Version | Previous Version | Current Version | All | Text Only | Save Text | Print | Product List | Glossary Off

Skip product version selection by date and time.   

327
ASUS44 KMAF 290510
RWRMAF
MIDLAND AREA WEATHER ROUNDUP
NATIONAL WEATHER SERVICE MIDLAND TX
1200 AM CDT FRI AUG 29 2014

...IN SOUTHWEST TEXAS AND SOUTHEAST NEW MEXICO...

CITY           SKY/WX    TMP DP  RH WIND       PRES   REMARKS
ALPINE         CLEAR     71  57  61 SW7       30.11S
ANDREWS        MOCLDY    73  65  77 SE8       29.94F
ARTESIA        NOT AVBL
BIG SPRING     CLOUDY    74  66  75 NE22G31   29.98R THUNDER
CARLSBAD       CLEAR     78  51  38 NW8       29.94S
DRYDEN           N/A     83  62  49 CALM      29.89R
FORT STOCKTON  MOCLDY    75  66  73 CALM      29.96R THUNDER
GUAD PASS      CLEAR     78  38  23 CALM      30.13S
HOBBS          CLEAR     75  55  50 N7        29.99S
MARFA          CLEAR     64  57  77 NE6       30.12R
MIDLAND AIRPK  PTCLDY    77  64  65 CALM      29.93
MIDLAND INTL   PTCLDY    77  63  61 E3        29.92F
ODESSA         PTCLDY    79  62  56 SE8       29.94S
PECOS          MOCLDY    77  66  68 NE7       29.91R
PRESIDIO       MOCLDY    80  64  57 NE6       29.94R
SEMINOLE       PTCLDY    74  62  65 SE3       29.96S
SNYDER         CLOUDY    71  67  89 E16       29.97F
WINK           CLOUDY    84  59  42 SE9       29.91R
$$
...OTHER STATIONS IN TEXAS...

CITY           SKY/WX    TMP DP  RH WIND       PRES   REMARKS
ABILENE        TSTM      72  69  90 E14G28    29.94F FOG
AMARILLO       MOCLDY    67  63  87 NE3       30.02S
AUSTIN         CLEAR     77  71  82 S5        29.91R
BROWNSVILLE    MOCLDY    83  79  88 SE6       29.82S
CORPUS CHRISTI MOCLDY    84  75  74 E13       29.85R
DALLAS FTW     MOCLDY    85  69  58 S10       29.91R
DEL RIO        MOCLDY    88  68  51 E13       29.83S
EL PASO        CLEAR     82  47  29 E3        30.01R
HOUSTON INT    PTCLDY    79  75  89 E5        29.91S
LUBBOCK        PTCLDY    68  65  90 SE9       29.97S
SAN ANGELO     PTCLDY    83  57  41 S6        29.88R
SAN ANTONIO    PTCLDY    82  72  71 E14       29.90F
WACO           CLEAR     82  70  66 SE13      29.90F
WICHITA FALLS  NOT AVBL
$$
...OTHER LOCATIONS IN NEW MEXICO...

CITY           SKY/WX    TMP DP  RH WIND       PRES   REMARKS
ALAMAGORDO     CLEAR     72  45  37 E6        30.04S
ALBUQUERQUE    CLEAR     74  41  30 N9        30.15R
CANNON AFB     CLEAR     68  52  56 E14       30.03R
CLOVIS           N/A     66  57  72 E7        30.06R
HOLLOMAN AFB   CLEAR     71  47  41 SW2       30.02S
ROSWELL        CLEAR     74  49  41 W9        29.99R
RUIDOSO        CLEAR     59  41  51 W7        30.26S
SANTA FE       PTCLDY    57  45  64 SW6       30.20R
TRUTH OR CONSE CLEAR     74  45  35 NW9       30.08S
TUCUMCARI      PTCLDY    71  46  40 NE9       30.05R
$$

USA.gov is the U.S. government's official web portal to all federal, state and local government web resources and services.